Lid_Strength_Index
7 7 7 6 6 6 6 5 5 5 5 5 5 5 5 5 4 6 7 7 8 11 9 8 7 8 7 7 10 8 9 8 8 11 10 11 11 10 12 10 10 11 13 13 13 15 17 7 7 10 8 6 5 5
7 7 6 6 6 6 5 5 5 5 5 5 5 5 4 4 4 5 7 5 4 7 6 3 3 3 3 4 5 6 7 7 6 9 9 9 11 10 10 13 8 12 11 13 12 11 7 6 7 5 5 6 5 5
7 6 6 6 6 6 6 6 5 5 5 5 4 4 3 3 3 2 4 3 2 5 5 6 5 3 2 2 2 7 5 4 6 4 8 9 11 9 12 10 9 9 8 11 11 8 7 6 5 5 5 5 4 4
7 7 6 6 6 6 6 6 6 5 5 4 3 3 2 1 1 -0 2 1 2 4 8 7 3 4 3 3 3 3 4 3 3 4 8 9 10 7 10 9 9 7 7 9 10 8 7 6 5 5 6 5 5 5
7 7 7 7 6 6 6 6 6 5 4 3 3 2 1 0 -1 0 2 2 2 5 8 7 4 4 3 3 3 4 5 6 6 8 8 9 7 8 7 8 10 6 8 9 10 7 7 7 5 4 4 4 5 5
7 7 7 7 7 7 6 6 5 4 3 2 1 1 -0 -1 0 2 5 3 2 2 7 10 5 6 4 4 4 4 5 6 6 7 7 6 5 7 10 10 7 6 5 5 7 5 5 5 4 4 4 4 4 4
7 7 7 7 7 6 6 5 4 3 2 1 1 -0 -1 -1 0 3 5 3 2 2 8 10 9 6 5 4 4 4 6 6 6 7 8 7 7 7 9 11 6 5 5 5 4 4 6 5 6 5 5 5 5 6
7 7 7 7 6 5 4 3 2 2 1 1 -0 -1 -1 -1 1 3 1 1 1 4 6 10 10 8 5 7 8 5 7 6 7 8 7 8 7 8 11 8 7 6 6 7 6 5 5 5 5 5 5 5 6 7
7 7 7 6 5 3 2 2 2 1 0 0 0 -0 1 2 3 3 1 1 2 4 9 9 11 11 5 7 7 7 7 9 7 9 9 9 10 11 9 9 7 7 8 8 5 5 5 5 6 6 6 7 7 8
7 6 6 4 3 2 2 1 1 0 1 1 1 3 4 2 1 1 3 5 5 5 7 10 8 10 8 8 9 8 9 10 11 10 9 11 11 9 7 9 7 5 5 4 6 6 7 7 7 7 8 7 7 7
6 5 4 3 2 2 1 1 0 0 1 2 4 4 2 1 3 4 7 8 8 9 8 8 8 10 6 10 10 7 10 9 13 11 11 11 12 8 5 5 4 4 4 4 4 5 5 5 6 6 7 6 6 6
6 4 3 2 2 2 1 1 0 1 1 2 2 1 2 4 5 7 8 7 9 10 7 8 9 8 8 7 9 7 10 9 13 8 11 13 9 6 5 5 4 3 3 3 3 5 5 5 6 6 6 6 6 6
4 3 3 2 2 2 1 0 -0 -1 1 1 3 5 6 6 9 10 12 10 10 8 7 8 9 8 7 7 8 9 11 12 7 11 13 11 7 5 5 4 4 3 3 3 3 3 4 4 4 4 5 5 5 6
3 3 3 2 2 1 0 -0 -0 0 1 4 6 9 8 9 9 9 9 9 8 7 8 8 8 8 8 8 8 11 9 8 12 14 13 9 7 5 4 4 4 4 4 4 3 3 3 4 4 4 4 4 5 5
3 3 2 3 2 1 0 -0 0 0 2 5 5 9 8 7 7 7 7 8 7 6 8 8 8 8 8 9 8 9 11 13 13 13 9 7 5 5 4 4 4 4 4 4 3 3 3 3 3 3 3 4 5 5
3 3 3 2 1 0 0 1 0 1 3 4 5 7 6 7 7 7 8 8 6 6 7 7 8 9 10 9 11 12 12 14 11 8 6 5 5 4 4 3 4 3 3 3 3 3 3 3 3 3 2 3 3 4
4 5 3 2 0 1 1 1 2 3 5 6 7 6 7 8 8 9 8 6 4 6 8 8 11 11 8 11 12 10 11 9 7 6 5 4 5 4 3 3 3 3 3 3 3 2 2 2 2 2 3 2 2 2
6 5 3 1 0 2 1 2 4 4 7 6 8 8 7 7 8 7 6 5 5 7 7 9 7 10 11 12 11 10 7 5 5 5 4 4 3 3 3 3 3 3 3 2 2 2 2 2 3 2 2 2 2 2
4 2 1 0 1 2 3 3 4 6 6 7 8 7 6 6 5 5 4 4 4 4 5 7 9 10 10 8 8 7 6 5 6 5 4 3 3 3 3 2 2 3 2 2 2 3 2 2 2 2 2 4 4 3
3 2 1 1 1 3 5 5 3 5 7 8 7 8 6 7 5 4 4 4 5 6 7 8 9 8 7 6 5 5 4 4 4 5 5 4 3 3 3 3 3 2 2 2 2 4 2 2 2 2 4 4 5 5
3 2 2 2 2 3 4 5 5 6 7 8 7 7 7 5 6 6 6 4 6 8 8 7 6 5 3 3 2 3 3 3 4 4 4 5 3 3 3 2 2 2 3 3 3 3 3 3 2 3 5 5 5 5
3 2 2 2 4 4 4 4 5 5 7 7 7 5 7 7 7 7 5 7 7 7 6 5 5 4 3 3 3 2 2 2 3 3 4 4 5 4 5 5 4 4 3 3 2 2 2 1 2 4 5 6 5 4
2 2 3 4 6 6 6 4 5 5 8 7 6 7 7 6 6 4 8 7 7 4 4 4 4 3 3 2 2 2 3 4 5 5 5 4 4 5 5 5 5 5 5 5 4 3 2 5 2 3 4 5 5 6
3 4 6 6 6 7 4 5 5 6 6 7 7 8 7 6 5 7 8 8 5 4 4 4 3 3 2 3 3 4 4 3 4 5 5 5 6 6 5 5 5 5 5 5 4 4 3 3 4 1 2 4 6 6
9 9 7 9 6 6 8 7 7 7 8 8 8 8 7 6 8 8 8 6 6 5 5 4 3 3 4 4 4 3 2 3 4 4 5 5 6 6 6 6 6 5 5 6 6 5 4 3 3 1 1 2 5 6
11 8 7 7 7 7 8 9 8 8 8 8 9 7 6 7 9 10 7 5 5 5 5 5 5 4 3 3 3 4 4 3 3 4 4 5 5 6 6 7 7 6 4 5 5 5 5 4 4 3 3 3 8 6
10 7 5 4 5 6 6 6 6 6 8 9 7 8 9 11 11 7 4 4 4 3 3 4 4 3 3 3 3 3 3 3 4 4 4 4 4 5 5 7 7 6 5 5 5 5 6 5 4 3 2 1 1 2
7 6 8 6 6 6 7 7 7 8 7 6 6 9 10 10 9 5 4 3 3 3 2 2 3 3 3 2 3 3 3 4 4 4 4 4 4 4 5 5 5 9 5 5 5 4 4 3 3 2 2 3 3 4
7 6 6 7 7 6 6 7 6 5 4 5 7 7 7 6 4 3 3 3 3 3 3 2 3 2 2 2 3 4 4 5 6 7 7 7 7 6 5 5 5 5 5 5 8 8 6 5 4 3 2 2 3 3
8 6 6 7 8 8 5 4 4 3 3 4 3 4 4 4 3 2 3 3 3 3 3 3 3 3 3 3 3 3 4 4 5 6 7 7 7 6 5 6 6 6 5 5 5 5 8 5 5 2 3 2 2 2
6 6 7 7 7 5 4 3 3 3 3 4 3 4 4 4 3 2 3 3 3 3 3 3 3 3 4 4 3 4 5 4 4 5 5 5 5 5 6 6 6 6 5 5 5 6 6 6 5 5 4 4 4 5
7 8 8 9 7 4 4 4 4 4 4 4 5 4 4 4 5 3 2 3 3 3 5 4 4 5 4 3 3 3 7 4 4 4 5 5 5 6 6 6 6 5 5 6 6 7 7 6 6 6 6 5 5 5
7 7 7 7 7 6 4 5 5 6 5 5 5 5 4 5 7 3 2 2 2 2 2 3 4 4 4 3 3 4 6 4 7 10 9 10 10 9 7 6 6 6 6 6 6 6 6 6 7 7 6 6 7 6